Weather History for Lawrenceville, IL

Change the Weather History Date:

Tuesday, April 15, 2014

  Actual Average Record
Temperature  
Mean Temperature 39 °F 56 °F  
Max Temperature 45 °F 67 °F 88 °F (2006)
Min Temperature 33 °F 45 °F 30 °F (2008)
Degree Days  
Heating Degree Days 26 10  
Month to date heating degree days 169 185  
Since 1 July heating degree days 5354 4482  
Cooling Degree Days 0 1  
Month to date cooling degree days 4 9  
Year to date cooling degree days 4 11  
Moisture  
Dew Point 26 °F    
Average Humidity 65    
Maximum Humidity 89    
Minimum Humidity 41    
Precipitation  
Precipitation 0.00 in 0.12 in 1.22 in (1998)
Month to date precipitation 5.83 1.69  
Year to date precipitation 9.63 9.51  
Sea Level Pressure  
Sea Level Pressure 30.14 in    
Wind  
Wind Speed 12 mph (NNW)    
Max Wind Speed 22 mph    
Max Gust Speed 27 mph    
Visibility 10 miles    
Events      
T = Trace of Precipitation, MM = Missing Value Source: NWS Daily Summary

Daily Weather History Graph

Daily Weather History Graph

Search for Another Location

Airport:

Trip Planner

Search our weather history database for the weather conditions in past years. The results will help you decide how hot, cold, wet, or windy it might be!

Date:

Astronomy

Apr. 15, 2014 Rise Set
Actual Time 6:14 AM CDT 7:27 PM CDT
Civil Twilight 5:46 AM CDT 7:54 PM CDT
Nautical Twilight 5:13 AM CDT 8:27 PM CDT
Astronomical Twilight 4:39 AM CDT 9:02 PM CDT
Moon 8:07 PM CDT (4/15) 6:21 AM CDT (4/15)
Length of Visible Light 14h 08m
Length of Day
13h 13m
Full, 100% of the Moon is Illuminated
Apr 15
Full
Apr 22
Last Quarter
Apr 29
New
May 6
First Quarter
May 14
Full

Hourly Weather History & Observations

Time (CDT) Temp. Windchill Dew Point Humidity Pressure Visibility Wind Dir Wind Speed Gust Speed Precip Events Conditions
12:53 AM 36.0 °F 26.3 °F 32.0 °F 86% 30.01 in 10.0 mi NW 16.1 mph 25.3 mph N/A   Overcast
1:53 AM 36.0 °F 26.7 °F 32.0 °F 86% 30.01 in 10.0 mi NW 15.0 mph - N/A   Overcast
2:37 AM 36.0 °F 26.3 °F 30.0 °F 79% 30.01 in 10.0 mi NW 16.1 mph - N/A   Overcast
2:53 AM 36.0 °F 26.3 °F 30.0 °F 79% 30.01 in 10.0 mi NW 16.1 mph 21.9 mph N/A   Overcast
3:53 AM 35.1 °F 25.9 °F 28.0 °F 76% 30.01 in 10.0 mi NNW 13.8 mph - N/A   Overcast
4:45 AM 35.1 °F 24.8 °F 28.0 °F 76% 30.02 in 10.0 mi NNW 17.3 mph - N/A   Overcast
4:53 AM 35.1 °F 24.8 °F 28.0 °F 76% 30.03 in 10.0 mi NNW 17.3 mph 24.2 mph N/A   Overcast
5:12 AM 34.0 °F 25.0 °F 28.0 °F 79% 30.03 in 10.0 mi NNW 12.7 mph - N/A   Mostly Cloudy
5:53 AM 33.1 °F 22.6 °F 26.1 °F 75% 30.06 in 10.0 mi NNW 16.1 mph - N/A   Scattered Clouds
6:53 AM 33.1 °F 24.4 °F 27.0 °F 78% 30.10 in 10.0 mi NNW 11.5 mph - N/A   Partly Cloudy
7:53 AM 35.1 °F 25.5 °F 25.0 °F 67% 30.13 in 10.0 mi NNW 15.0 mph - N/A   Clear
8:53 AM 37.0 °F 28.5 °F 26.1 °F 65% 30.15 in 10.0 mi NNW 13.8 mph - N/A   Mostly Cloudy
9:53 AM 36.0 °F 26.3 °F 23.0 °F 59% 30.17 in 10.0 mi NNW 16.1 mph 24.2 mph N/A   Overcast
10:53 AM 37.9 °F 28.5 °F 21.9 °F 53% 30.19 in 10.0 mi North 17.3 mph - N/A   Overcast
11:53 AM 39.0 °F 29.9 °F 21.9 °F 50% 30.19 in 10.0 mi NNW 17.3 mph 21.9 mph N/A   Mostly Cloudy
12:53 PM 41.0 °F 34.7 °F 23.0 °F 49% 30.19 in 10.0 mi NW 10.4 mph 21.9 mph N/A   Mostly Cloudy
1:53 PM 43.0 °F 36.0 °F 23.0 °F 45% 30.20 in 10.0 mi NW 13.8 mph 20.7 mph N/A   Mostly Cloudy
2:53 PM 43.0 °F 35.1 °F 21.9 °F 43% 30.21 in 10.0 mi NW 17.3 mph 23.0 mph N/A   Mostly Cloudy
3:53 PM 43.0 °F 36.0 °F 21.9 °F 43% 30.21 in 10.0 mi NNW 13.8 mph - N/A   Overcast
4:53 PM 41.0 °F 34.3 °F 21.9 °F 47% 30.22 in 10.0 mi North 11.5 mph - N/A   Overcast
5:53 PM 41.0 °F 34.7 °F 21.0 °F 45% 30.22 in 10.0 mi NW 10.4 mph - N/A   Clear
6:53 PM 41.0 °F 35.8 °F 19.9 °F 43% 30.22 in 10.0 mi NNW 8.1 mph - N/A   Clear
7:53 PM 37.9 °F 34.4 °F 23.0 °F 55% 30.24 in 10.0 mi North 4.6 mph - N/A   Clear
8:53 PM 37.0 °F 33.3 °F 25.0 °F 62% 30.25 in 10.0 mi East 4.6 mph - N/A   Clear
9:53 PM 35.1 °F 32.2 °F 27.0 °F 72% 30.26 in 10.0 mi ESE 3.5 mph - N/A   Clear
10:53 PM 35.1 °F 31.0 °F 27.0 °F 72% 30.26 in 10.0 mi ESE 4.6 mph - N/A   Clear
11:53 PM 35.1 °F 32.2 °F 28.0 °F 76% 30.28 in 10.0 mi ESE 3.5 mph - N/A   Clear